Location: Göttingen
(51.5413°N, 9.9158°E)
Time: 06:10:16
(UTC+02:00)

BEESAT - Pass Details

Date: 09 July 2022
Orbit: 700 x 706 km, 98.6° (Epoch: 07 August)

Event Time Altitude Azimuth Distance (km) Brightness Sun altitude
Rises 23:58:19 0° 2° (N) 3,109 ? -13.6°
Reaches altitude 10° 00:01:52 10° 334° (NNW) 2,187 ? -13.8°
Maximum altitude 00:03:50 13° 310° (NW) 2,014 ? -13.9°
Drops below altitude 10° 00:05:49 10° 285° (WNW) 2,183 ? -14.0°
Sets 00:09:21 0° 257° (WSW) 3,097 ? -14.2°
